W4SNA-3 Weather Reports


Display with metric or nautical units.
time (UTC)temp
F
wind
direction
speed
MPH
gust
MPH
rain 1hr
in
rain 24hr
in
rain mn
in
humidity
%
barometer
mb
20220518193348 75 229 5.0 9.0 0.00 0.00 0.00 51 1016.1
20220518192848 74 228 2.0 8.0 0.00 0.00 0.00 50 1016.0
20220518192348 74 237 3.0 8.0 0.00 0.00 0.00 48 1016.0
20220518191848 75 231 2.0 11.0 0.00 0.00 0.00 47 1015.9
20220518191348 75 237 2.0 11.0 0.00 0.00 0.00 51 1016.0
20220518190849 75 229 3.0 7.0 0.00 0.00 0.00 49 1016.1
20220518190349 75 203 1.0 7.0 0.00 0.00 0.00 52 1016.0
20220518185848 75 219 1.0 7.0 0.00 0.00 0.00 53 1016.1
20220518185348 75 243 3.0 6.0 0.00 0.00 0.00 54 1016.2
20220518184848 75 213 2.0 5.0 0.00 0.00 0.00 53 1016.3
20220518184348 75 227 1.0 7.0 0.00 0.00 0.00 53 1016.2
20220518183848 76 231 3.0 7.0 0.00 0.00 0.00 52 1016.1
20220518183348 76 242 2.0 8.0 0.00 0.00 0.00 51 1016.1
20220518182851 76 231 3.0 9.0 0.00 0.00 0.00 54 1016.3
20220518182350 76 236 4.0 10.0 0.00 0.00 0.00 51 1016.6
20220518181848 76 242 3.0 10.0 0.00 0.00 0.00 54 1016.6
20220518181348 75 242 2.0 7.0 0.00 0.00 0.00 49 1016.6
20220518180853 76 196 2.0 7.0 0.00 0.00 0.00 53 1016.8
20220518175917 76 244 2.0 7.0 0.00 0.00 0.00 48 1017.0
20220518175417 77 240 3.0 9.0 0.00 0.00 0.00 58 1017.1
20220518174931 77 241 2.0 12.0 0.00 0.00 0.00 52 1017.1
20220518174417 77 238 4.0 12.0 0.00 0.00 0.00 53 1017.2
20220518173917 76 255 1.0 8.0 0.00 0.00 0.00 50 1017.1
20220518173417 76 242 4.0 7.0 0.00 0.00 0.00 50 1017.2
20220518172919 76 240 2.0 5.0 0.00 0.00 0.00 48 1017.2
20220518172259 75 246 1.0 10.0 0.00 0.00 0.00 54 1017.1
20220518171759 76 224 1.0 12.0 0.00 0.00 0.00 50 1017.2
20220518171304 77 225 4.0 12.0 0.00 0.00 0.00 45 1017.2
20220518170759 77 222 2.0 7.0 0.00 0.00 0.00 49 1017.4
20220518170259 77 237 3.0 6.0 0.00 0.00 0.00 48 1017.6
20220518165759 77 248 3.0 11.0 0.00 0.00 0.00 49 1017.5
20220518165300 78 246 4.0 11.0 0.00 0.00 0.00 45 1017.5
20220518164759 78 254 3.0 7.0 0.00 0.00 0.00 50 1016.9
20220518164259 77 252 2.0 7.0 0.00 0.00 0.00 46 1016.9
20220518163759 78 237 2.0 6.0 0.00 0.00 0.00 45 1017.1
20220518163259 78 241 3.0 6.0 0.00 0.00 0.00 47 1017.1
20220518162759 77 251 2.0 5.0 0.00 0.00 0.00 52 1016.9
20220518162259 77 245 2.0 5.0 0.00 0.00 0.00 52 1016.8
20220518161759 76 239 2.0 7.0 0.00 0.00 0.00 51 1016.8
20220518161300 77 206 1.0 7.0 0.00 0.00 0.00 49 1016.9
20220518160759 77 220 1.0 3.0 0.00 0.00 0.00 50 1016.8
20220518160259 77 206 1.0 5.0 0.00 0.00 0.00 47 1017.0
20220518155759 77 0 0.0 5.0 0.00 0.00 0.00 47 1017.3
20220518155231 77 257 1.0 4.0 0.00 0.00 0.00 51 1017.3
20220518154730 77 212 1.0 4.0 0.00 0.00 0.00 50 1017.4
20220518154230 77 209 1.0 4.0 0.00 0.00 0.00 50 1017.3
20220518153753 77 233 1.0 4.0 0.00 0.00 0.00 54 1017.4
20220518152917 77 261 1.0 5.0 0.00 0.00 0.00 48 1017.5
20220518152414 76 244 1.0 4.0 0.00 0.00 0.00 54 1017.6
20220518151912 76 232 1.0 5.0 0.00 0.00 0.00 47 1017.7
20220518151412 76 233 1.0 5.0 0.00 0.00 0.00 50 1017.8
20220518150912 77 250 1.0 4.0 0.00 0.00 0.00 50 1017.9
20220518150338 76 242 1.0 5.0 0.00 0.00 0.00 54 1017.9
20220518145841 75 257 1.0 4.0 0.00 0.00 0.00 48 1018.1
20220518145337 75 0 0.0 5.0 0.00 0.00 0.00 51 1018.1
20220518144840 74 0 0.0 6.0 0.00 0.00 0.00 47 1018.1
20220518144337 75 234 2.0 6.0 0.00 0.00 0.00 45 1018.1
20220518143837 76 234 3.0 6.0 0.00 0.00 0.00 42 1018.4
20220518143338 76 0 0.0 3.0 0.00 0.00 0.00 47 1018.4
20220518142838 75 28 1.0 3.0 0.00 0.00 0.00 49 1018.6
20220518142337 75 0 0.0 3.0 0.00 0.00 0.00 51 1018.6
20220518141837 74 0 0.0 3.0 0.00 0.00 0.00 54 1018.6
20220518141101 74 225 2.0 3.0 0.00 0.00 0.00 51 1018.6
20220518140602 74 0 0.0 2.0 0.00 0.00 0.00 56 1018.6
20220518140110 74 0 0.0 2.0 0.00 0.00 0.00 56 1018.5
20220518135603 73 0 0.0 3.0 0.00 0.00 0.00 55 1018.5
20220518135101 72 185 1.0 3.0 0.00 0.00 0.00 48 1018.5
20220518134317 72 102 2.0 6.0 0.00 0.00 0.00 51 1018.7
20220518133816 72 5 1.0 3.0 0.00 0.00 0.00 48 1018.8
20220518133322 71 0 0.0 3.0 0.00 0.00 0.00 50 1018.9
20220518132817 71 0 0.0 3.0 0.00 0.00 0.00 53 1019.0
20220518132317 70 40 1.0 5.0 0.00 0.00 0.00 50 1019.0
20220518131819 70 15 1.0 5.0 0.00 0.00 0.00 55 1018.9
20220518131318 69 49 1.0 7.0 0.00 0.00 0.00 54 1019.0
20220518130831 68 330 1.0 7.0 0.00 0.00 0.00 56 1019.0
20220518130319 67 0 0.0 2.0 0.00 0.00 0.00 61 1019.0
20220518125827 66 0 0.0 2.0 0.00 0.00 0.00 61 1019.0
20220518125317 65 0 0.0 2.0 0.00 0.00 0.00 63 1019.0
20220518124816 64 0 0.0 3.0 0.00 0.00 0.00 63 1019.0
20220518124318 64 320 1.0 3.0 0.00 0.00 0.00 61 1018.8
20220518123818 65 307 1.0 3.0 0.00 0.00 0.00 62 1018.6
20220518123319 65 317 1.0 3.0 0.00 0.00 0.00 62 1018.6
20220518122816 65 317 1.0 3.0 0.00 0.00 0.00 62 1018.7
20220518122316 65 319 1.0 2.0 0.00 0.00 0.00 62 1018.6
20220518121816 65 317 1.0 2.0 0.00 0.00 0.00 63 1018.7
20220518121323 64 0 0.0 2.0 0.00 0.00 0.00 63 1018.5
20220518120817 64 316 1.0 3.0 0.00 0.00 0.00 63 1018.5
20220518120319 63 316 1.0 3.0 0.00 0.00 0.00 63 1018.5
20220518115816 63 316 1.0 2.0 0.00 0.00 0.00 65 1018.4
20220518115316 62 0 0.0 2.0 0.00 0.00 0.00 65 1018.2
20220518114816 61 316 1.0 2.0 0.00 0.00 0.00 66 1018.1
20220518114319 61 316 1.0 2.0 0.00 0.00 0.00 67 1018.0
20220518113821 60 316 1.0 3.0 0.00 0.00 0.00 68 1018.0
20220518113318 59 316 1.0 3.0 0.00 0.00 0.00 70 1018.0
20220518112816 58 316 1.0 3.0 0.00 0.00 0.00 71 1018.0
20220518112316 58 316 1.0 3.0 0.00 0.00 0.00 72 1017.9
20220518111816 57 316 1.0 3.0 0.00 0.00 0.00 73 1017.9
20220518111319 57 316 1.0 3.0 0.00 0.00 0.00 74 1017.9
20220518110817 56 315 1.0 3.0 0.00 0.00 0.00 73 1017.9
20220518110323 56 313 1.0 3.0 0.00 0.00 0.00 74 1017.8
20220518105824 55 313 1.0 3.0 0.00 0.00 0.00 74 1017.7
20220518105318 55 313 1.0 3.0 0.00 0.00 0.00 74 1017.6
20220518104816 55 313 1.0 3.0 0.00 0.00 0.00 74 1017.6
20220518104336 55 313 1.0 3.0 0.00 0.00 0.00 75 1017.6
20220518103816 55 314 1.0 3.0 0.00 0.00 0.00 76 1017.7
20220518103316 55 319 1.0 3.0 0.00 0.00 0.00 76 1017.5
20220518102816 55 323 1.0 3.0 0.00 0.00 0.00 75 1017.4
20220518101844 55 321 1.0 3.0 0.00 0.00 0.00 75 1017.5
20220518101340 55 323 1.0 3.0 0.00 0.00 0.00 74 1017.4
20220518100836 55 318 1.0 3.0 0.00 0.00 0.00 73 1017.3
20220518100336 55 316 1.0 3.0 0.00 0.00 0.00 73 1017.4
20220518095348 55 315 1.0 3.0 0.00 0.00 0.00 73 1017.3
20220518094851 55 315 1.0 3.0 0.00 0.00 0.00 73 1017.2
20220518094347 55 314 1.0 3.0 0.00 0.00 0.00 74 1017.3
20220518093855 55 315 1.0 3.0 0.00 0.00 0.00 74 1017.4
20220518093147 56 313 1.0 3.0 0.00 0.00 0.00 74 1017.3
20220518092647 56 313 1.0 3.0 0.00 0.00 0.00 73 1017.3
20220518092151 56 313 1.0 3.0 0.00 0.00 0.00 73 1017.4
20220518091647 56 313 1.0 3.0 0.00 0.00 0.00 72 1017.4
20220518091150 56 313 1.0 3.0 0.00 0.00 0.00 73 1017.5
20220518090647 56 313 1.0 3.0 0.00 0.00 0.00 72 1017.6
20220518090147 56 313 1.0 3.0 0.00 0.00 0.00 72 1017.4
20220518085646 56 298 1.0 3.0 0.00 0.00 0.00 73 1017.3
20220518085150 56 319 1.0 3.0 0.00 0.00 0.00 72 1017.2
20220518084647 56 318 1.0 3.0 0.00 0.00 0.00 72 1017.4
20220518084151 56 317 1.0 3.0 0.00 0.00 0.00 73 1017.2
20220518083302 56 323 1.0 3.0 0.00 0.00 0.00 72 1017.1
20220518082818 56 320 1.0 3.0 0.00 0.00 0.00 73 1017.0
20220518082300 56 315 1.0 3.0 0.00 0.00 0.00 73 1017.1
20220518081800 56 298 1.0 3.0 0.00 0.00 0.00 73 1017.1
20220518081300 56 306 1.0 3.0 0.00 0.00 0.00 73 1017.1
20220518080800 56 323 1.0 3.0 0.00 0.00 0.00 73 1017.0
20220518080024 56 316 1.0 3.0 0.00 0.00 0.00 72 1017.0
20220518075524 56 308 1.0 3.0 0.00 0.00 0.00 73 1017.0
20220518075026 55 304 1.0 3.0 0.00 0.00 0.00 73 1016.9
20220518074526 55 318 1.0 3.0 0.00 0.00 0.00 73 1016.9
20220518074024 55 309 1.0 2.0 0.00 0.00 0.00 73 1016.9
20220518073135 55 309 1.0 3.0 0.00 0.00 0.00 73 1017.0
20220518072641 55 309 1.0 3.0 0.00 0.00 0.00 73 1017.1
20220518072135 55 308 1.0 3.0 0.00 0.00 0.00 74 1017.1
20220518071635 55 318 1.0 2.0 0.00 0.00 0.00 74 1017.1
20220518071135 55 318 1.0 2.0 0.00 0.00 0.00 73 1017.0
20220518070635 56 318 1.0 2.0 0.00 0.00 0.00 73 1017.1
20220518070135 56 318 1.0 2.0 0.00 0.00 0.00 72 1017.1
20220518065219 56 319 1.0 2.0 0.00 0.00 0.00 72 1017.0
20220518063851 56 301 1.0 2.0 0.00 0.00 0.00 72 1017.1
20220518063351 56 295 1.0 2.0 0.00 0.00 0.00 71 1017.2
20220518062851 56 289 1.0 2.0 0.00 0.00 0.00 71 1017.2
20220518062353 56 0 0.0 2.0 0.00 0.00 0.00 72 1017.2
20220518061851 56 0 0.0 3.0 0.00 0.00 0.00 70 1017.2
20220518061351 56 0 0.0 3.0 0.00 0.00 0.00 70 1017.1
20220518060851 56 0 0.0 2.0 0.00 0.00 0.00 70 1017.2
20220518060352 56 0 0.0 2.0 0.00 0.00 0.00 69 1017.3
20220518055851 57 0 0.0 2.0 0.00 0.00 0.00 68 1017.2
20220518055351 57 310 1.0 2.0 0.00 0.00 0.00 69 1017.3
20220518054851 57 0 0.0 4.0 0.00 0.00 0.00 68 1017.3
20220518054351 57 0 0.0 4.0 0.00 0.00 0.00 69 1017.4
20220518053851 57 295 1.0 2.0 0.00 0.00 0.00 68 1017.3
20220518052851 56 0 0.0 5.0 0.00 0.00 0.00 69 1017.2
20220518052351 56 274 1.0 2.0 0.00 0.00 0.00 69 1017.1
20220518051518 56 0 0.0 2.0 0.00 0.00 0.00 69 1017.3
20220518051018 56 314 1.0 2.0 0.00 0.00 0.00 69 1017.4
20220518050518 56 0 0.0 2.0 0.00 0.00 0.00 69 1017.5
20220518050021 56 0 0.0 2.0 0.00 0.00 0.00 68 1017.5
20220518045518 56 0 0.0 2.0 0.00 0.00 0.00 69 1017.4
20220518045026 57 0 0.0 2.0 0.00 0.00 0.00 69 1017.3
20220518044518 57 0 0.0 2.0 0.00 0.00 0.00 69 1017.5
20220518044018 57 0 0.0 2.0 0.00 0.00 0.00 68 1017.5
20220518043534 57 0 0.0 2.0 0.00 0.00 0.00 68 1017.6
20220518043018 57 0 0.0 2.0 0.00 0.00 0.00 67 1017.4
20220518042518 57 0 0.0 2.0 0.00 0.00 0.00 67 1017.3
20220518042018 57 0 0.0 2.0 0.00 0.00 0.00 67 1017.3
20220518041522 57 0 0.0 1.0 0.00 0.00 0.00 67 1017.2
20220518041018 57 0 0.0 1.0 0.00 0.00 0.00 67 1017.3
20220518040518 58 0 0.0 1.0 0.00 0.00 0.00 67 1017.3
20220518040018 58 0 0.0 2.0 0.00 0.00 0.00 65 1017.4
20220518035518 58 0 0.0 2.0 0.00 0.00 0.00 65 1017.4
20220518035018 58 0 0.0 1.0 0.00 0.00 0.00 65 1017.3
20220518034518 58 0 0.0 1.0 0.00 0.00 0.00 65 1017.4
20220518034018 58 0 0.0 1.0 0.00 0.00 0.00 64 1017.4
20220518033518 58 0 0.0 2.0 0.00 0.00 0.00 65 1017.3
20220518033018 58 0 0.0 2.0 0.00 0.00 0.00 64 1017.4
20220518032518 58 0 0.0 2.0 0.00 0.00 0.00 63 1017.4
20220518032018 58 0 0.0 2.0 0.00 0.00 0.00 63 1017.3
20220518031518 58 60 1.0 2.0 0.00 0.00 0.00 65 1017.3
20220518031018 58 0 0.0 2.0 0.00 0.00 0.00 65 1017.2
20220518030518 58 0 0.0 2.0 0.00 0.00 0.00 65 1017.3
20220518030020 58 0 0.0 2.0 0.00 0.00 0.00 65 1017.3
20220518025518 58 0 0.0 2.0 0.00 0.00 0.00 64 1017.3
20220518025018 58 0 0.0 2.0 0.00 0.00 0.00 64 1017.1
20220518024518 59 0 0.0 1.0 0.00 0.00 0.00 64 1017.1
20220518024018 59 0 0.0 1.0 0.00 0.00 0.00 63 1017.2
20220518023341 59 0 0.0 2.0 0.00 0.00 0.00 63 1016.9
20220518022832 59 0 0.0 2.0 0.00 0.00 0.00 64 1016.8
20220518022330 59 0 0.0 2.0 0.00 0.00 0.00 61 1016.9
20220518021830 59 0 0.0 2.0 0.00 0.00 0.00 63 1016.9
20220518021330 59 0 0.0 2.0 0.00 0.00 0.00 63 1016.7
20220518020833 59 0 0.0 2.0 0.00 0.00 0.00 63 1016.6
20220518020330 59 355 1.0 2.0 0.00 0.00 0.00 62 1016.5
20220518015835 59 0 0.0 2.0 0.00 0.00 0.00 62 1016.6
20220518015330 60 0 0.0 3.0 0.00 0.00 0.00 62 1016.4
20220518014830 60 0 0.0 3.0 0.00 0.00 0.00 61 1016.5
20220518014330 60 333 1.0 2.0 0.00 0.00 0.00 61 1016.4
20220518013830 60 357 1.0 2.0 0.00 0.00 0.00 61 1016.3
20220518013330 60 302 1.0 2.0 0.00 0.00 0.00 60 1016.4
20220518012338 60 316 1.0 3.0 0.00 0.00 0.00 60 1016.2
20220518011837 60 0 0.0 2.0 0.00 0.00 0.00 60 1016.2
20220518011149 60 0 0.0 2.0 0.00 0.00 0.00 60 1016.2
20220518010649 60 0 0.0 2.0 0.00 0.00 0.00 60 1016.2
20220518010149 61 327 1.0 2.0 0.00 0.00 0.00 59 1016.2
20220518005649 61 0 0.0 3.0 0.00 0.00 0.00 59 1016.1
20220518005149 61 0 0.0 3.0 0.00 0.00 0.00 59 1016.1
20220518004649 61 0 0.0 2.0 0.00 0.00 0.00 57 1016.1
20220518004106 62 0 0.0 2.0 0.00 0.00 0.00 57 1016.1
20220518003606 62 0 0.0 2.0 0.00 0.00 0.00 56 1015.9
20220518003106 63 0 0.0 2.0 0.00 0.00 0.00 56 1015.9
20220518002606 63 0 0.0 2.0 0.00 0.00 0.00 55 1015.8
20220518002106 63 0 0.0 2.0 0.00 0.00 0.00 56 1015.8
20220518001606 63 0 0.0 2.0 0.00 0.00 0.00 54 1015.8
20220518001106 64 0 0.0 2.0 0.00 0.00 0.00 54 1015.7
20220518000616 64 0 0.0 3.0 0.00 0.00 0.00 53 1015.8
20220518000106 64 0 0.0 3.0 0.00 0.00 0.00 53 1015.7
20220517235606 64 0 0.0 7.0 0.00 0.00 0.00 51 1015.5
20220517235106 65 0 0.0 7.0 0.00 0.00 0.00 50 1015.5
20220517234614 65 257 1.0 3.0 0.00 0.00 0.00 50 1015.6
20220517234106 65 256 1.0 3.0 0.00 0.00 0.00 51 1015.3
20220517233606 65 270 1.0 3.0 0.00 0.00 0.00 50 1015.3
20220517233106 66 0 0.0 5.0 0.00 0.00 0.00 48 1015.4
20220517232606 66 321 1.0 5.0 0.00 0.00 0.00 46 1015.4
20220517232107 66 280 2.0 3.0 0.00 0.00 0.00 46 1015.4
20220517231537 66 284 1.0 3.0 0.00 0.00 0.00 48 1015.4
20220517231035 66 0 0.0 3.0 0.00 0.00 0.00 46 1015.4
20220517230536 67 0 0.0 3.0 0.00 0.00 0.00 46 1015.4
20220517230037 67 273 1.0 3.0 0.00 0.00 0.00 47 1015.4
20220517225537 67 290 1.0 4.0 0.00 0.00 0.00 47 1015.3
20220517225037 67 311 1.0 5.0 0.00 0.00 0.00 43 1015.4
20220517224536 68 297 2.0 5.0 0.00 0.00 0.00 46 1015.3
20220517224040 68 355 1.0 4.0 0.00 0.00 0.00 45 1015.3
20220517223539 68 357 1.0 4.0 0.00 0.00 0.00 43 1015.2
20220517223038 68 6 1.0 7.0 0.00 0.00 0.00 42 1015.2
20220517222537 68 293 2.0 7.0 0.00 0.00 0.00 44 1015.3
20220517222007 69 244 2.0 6.0 0.00 0.00 0.00 42 1015.3
20220517221508 69 65 1.0 5.0 0.00 0.00 0.00 44 1015.3
20220517221007 69 4 2.0 8.0 0.00 0.00 0.00 41 1015.4
20220517220508 69 352 1.0 8.0 0.00 0.00 0.00 42 1015.4
20220517220007 69 189 2.0 5.0 0.00 0.00 0.00 41 1015.4
20220517215325 70 252 1.0 5.0 0.00 0.00 0.00 39 1015.5
20220517214825 70 261 1.0 6.0 0.00 0.00 0.00 42 1015.5
20220517214325 70 242 1.0 8.0 0.00 0.00 0.00 42 1015.4
20220517213825 71 236 1.0 8.0 0.00 0.00 0.00 40 1015.5
20220517213331 71 42 1.0 5.0 0.00 0.00 0.00 36 1015.5
20220517212835 72 250 1.0 9.0 0.00 0.00 0.00 37 1015.5
20220517212325 72 258 2.0 13.0 0.00 0.00 0.00 39 1015.4
20220517211831 73 231 3.0 13.0 0.00 0.00 0.00 37 1015.5
20220517211325 73 23 3.0 10.0 0.00 0.00 0.00 35 1015.4
20220517210825 73 132 2.0 7.0 0.00 0.00 0.00 36 1015.4
20220517210325 73 257 2.0 7.0 0.00 0.00 0.00 38 1015.3
20220517205832 73 317 3.0 10.0 0.00 0.00 0.00 35 1015.4
20220517205325 73 250 3.0 10.0 0.00 0.00 0.00 36 1015.3
20220517204825 73 227 2.0 7.0 0.00 0.00 0.00 37 1015.3
20220517204126 73 263 2.0 7.0 0.00 0.00 0.00 41 1015.3
20220517203626 73 197 3.0 7.0 0.00 0.00 0.00 39 1015.3
20220517203126 74 319 2.0 7.0 0.00 0.00 0.00 36 1015.3
20220517202514 73 334 2.0 6.0 0.00 0.00 0.00 42 1015.3
20220517201934 73 28 2.0 5.0 0.00 0.00 0.00 36 1015.4
20220517201434 73 327 1.0 8.0 0.00 0.00 0.00 40 1015.6
20220517200934 74 232 2.0 8.0 0.00 0.00 0.00 39 1015.5
20220517200434 74 280 3.0 8.0 0.00 0.00 0.00 40 1015.4
20220517195433 74 240 2.0 9.0 0.00 0.00 0.00 37 1014.5
20220517194823 74 301 3.0 9.0 0.00 0.00 0.00 36 1014.6
20220517194325 75 263 2.0 7.0 0.00 0.00 0.00 41 1014.9